Location: Plum
(40.5000°N, 79.7500°W)
Time: 00:01:29
(UTC-04:00)

MOZ.5/SAFIR/RUBIN 5/SL-8 - Visible Passes

Search period start: 31 October 2014 00:00
Search period end: 09 November 2014 23:00
Orbit: 681 x 708 km, 97.8° (Epoch: 30 October)

Date Brightness Start Highest point End Pass type
(mag) Time Alt. Az. Time Alt. Az. Time Alt. Az.
31 Oct 6.8 05:08:14 10° E 05:09:57 12° ENE 05:11:40 10° NE visible
31 Oct 3.7 06:42:15 10° S 06:46:54 76° WSW 06:51:37 10° NNW visible
31 Oct 4.7 18:41:13 10° NE 18:45:23 29° E 18:49:32 10° SSE visible
31 Oct 5.8 20:18:50 10° N 20:22:55 29° WNW 20:27:00 10° SW visible
01 Nov 5.8 05:45:49 10° SE 05:49:47 28° ENE 05:53:48 10° N visible
01 Nov 3.7 19:21:00 10° NNE 19:25:49 77° ESE 19:30:35 10° S visible
01 Nov 6.9 21:00:53 10° NW 21:02:46 12° WNW 21:04:38 10° W visible
02 Nov 4.0 05:25:13 10° SSE 05:29:52 73° ENE 05:34:35 10° N visible
02 Nov 5.1 19:01:30 10° N 19:05:59 41° WNW 19:10:28 10° SW visible
03 Nov 6.3 04:29:31 10° ESE 04:32:54 20° ENE 04:36:17 10° NNE visible
03 Nov 4.2 06:05:46 10° S 06:10:11 42° W 06:14:41 10° NNW visible
03 Nov 4.0 18:04:04 10° NNE 18:08:45 51° E 18:13:23 10° S visible
03 Nov 6.5 19:42:48 10° NNW 19:45:56 18° WNW 19:49:03 10° WSW visible
04 Nov 4.7 05:08:23 10° SE 05:12:52 48° ENE 05:17:25 10° N visible
04 Nov 4.3 18:44:17 10° N 18:49:01 61° WNW 18:53:43 10° SSW visible
05 Nov 6.7 04:13:38 10° E 04:16:02 14° ENE 04:18:27 10° NNE visible
05 Nov 3.8 05:48:27 10° S 05:53:05 64° W 05:57:48 10° NNW visible
05 Nov 4.5 17:47:15 10° NNE 17:51:38 34° E 17:55:58 10° SSE visible
05 Nov 6.0 19:25:11 10° NNW 19:29:03 25° WNW 19:32:54 10° WSW visible
06 Nov 5.5 04:51:44 10° SE 04:55:54 33° ENE 05:00:08 10° N visible
06 Nov 3.8 18:27:11 10° NNE 18:32:00 90° E 18:36:46 10° SSW visible
06 Nov 7.0 20:08:03 10° NW 20:08:51 10° WNW 20:09:38 10° WNW visible
07 Nov 3.8 05:31:20 10° SSE 05:36:01 86° ENE 05:40:47 10° NNW visible
07 Nov 5.0 17:30:38 10° NE 17:34:28 24° E 17:38:16 10° SSE visible
07 Nov 5.4 19:07:47 10° N 19:12:08 35° WNW 19:16:27 10° SW visible
08 Nov 6.1 04:35:18 10° ESE 04:38:59 23° ENE 04:42:42 10° NNE visible
08 Nov 4.4 06:12:04 10° SSW 06:16:23 36° W 06:20:45 10° NNW visible
08 Nov 3.8 18:10:11 10° NNE 18:14:56 61° E 18:19:38 10° S visible
08 Nov 6.6 19:49:19 10° NNW 19:52:01 15° WNW 19:54:43 10° W visible
09 Nov 4.4 05:14:24 10° SSE 05:19:00 58° ENE 05:23:40 10° N visible
09 Nov 4.6 18:50:30 10° N 18:55:10 52° WNW 18:59:46 10° SSW visible
